GSAT0210 (PRN E01)

Last updated on Jan. 19, 2021, 6:23 a.m. UTC

1 41550U 16030B   21018.47345532 -.00000017  00000-0  00000-0 0  9999
2 41550  56.1278 276.0552 0003266 317.1192  42.9237  1.70474602 28989
UTC
Height (km)
Latitude
Longitude
Inclination
Orbital Period
UTC large
Height (km)
Speed (km/s)
/
Latitude / Longitude
Inclination (degrees)
Orbital Period (minutes)
Azimuth
Elevation
Range (km)
Doppler Factor
iOS Compass Heading
iOS Angle

Next 30 passes for location: Hong Kong

Rise time Rise Azimuth (degrees) Set time Set Azimuth (degrees) Duration Max altitude (degrees)

No matching passes for this satellites